Wind_Speed
6 8 9 12 14 16 17 18 19 20 20 17 14 11 11 12 13 13 13 13 15 16 18 19 19 19 18 17 15 13 12 10 9 8 7 8 8 9 10 10 10 10 10 9 9 9 9 10 11 12 13 14 14 14 14 13 13 12 12 11 11 11 11 11 11 11 11 11 11 11 11 11 11 11 11 12 12 12 12 12 12 12 12 12 12 12
6 7 9 11 14 16 16 16 17 17 17 16 14 13 12 12 13 14 15 16 18 19 19 19 19 17 15 13 11 9 8 7 7 6 7 8 9 10 10 10 10 10 9 9 9 9 10 11 12 13 13 14 14 14 14 13 13 12 12 12 11 11 11 11 11 11 11 11 11 11 11 11 12 12 12 12 12 12 12 12 12 12 12 12 12 13
6 7 9 11 13 15 15 15 15 16 16 16 16 15 15 15 15 17 18 19 19 19 18 17 15 13 10 8 6 5 5 5 6 7 8 9 10 10 10 10 9 9 9 9 9 10 11 12 13 13 14 14 14 14 14 13 13 12 12 12 11 11 11 11 11 11 11 11 11 11 12 12 12 12 12 12 12 12 12 12 12 12 12 12 13 13
6 8 10 11 13 14 14 15 15 16 17 17 18 18 17 17 17 18 19 18 18 16 14 12 10 8 7 6 5 4 3 4 6 7 9 10 10 10 9 9 9 8 9 9 11 12 13 13 14 14 14 14 14 13 13 13 12 12 12 11 11 11 11 11 11 11 11 11 11 11 12 12 12 12 12 12 12 12 12 12 12 12 12 13 13 13
6 7 9 11 11 12 13 14 15 15 16 17 17 17 17 17 16 16 16 14 12 10 8 7 7 6 5 5 4 3 2 3 5 7 10 10 10 9 8 8 8 9 10 11 12 13 14 14 13 13 13 13 13 13 13 12 12 12 11 11 11 11 11 11 11 11 11 11 11 11 12 12 12 12 12 12 12 12 12 12 12 12 13 13 13 13
6 7 8 9 9 9 10 11 12 12 13 14 14 14 13 12 11 10 9 8 7 6 6 5 5 5 4 4 3 3 3 4 6 8 10 10 9 9 9 9 10 11 12 13 14 14 14 13 13 12 12 12 12 12 12 12 12 11 11 11 11 11 11 11 11 11 11 11 11 12 12 12 12 12 12 12 12 12 12 12 12 12 13 13 13 13
6 6 7 8 8 7 7 6 7 8 8 8 8 8 7 6 6 5 5 5 5 5 5 5 5 5 4 5 5 5 6 6 8 10 11 12 12 12 12 12 13 14 14 15 15 14 13 12 12 12 12 12 12 12 12 12 12 12 12 12 12 12 12 12 12 12 12 12 12 12 12 12 12 12 12 12 12 12 12 12 12 12 12 13 13 13
5 5 5 6 6 5 4 3 3 3 3 4 4 4 4 5 5 5 5 5 5 5 5 5 5 5 6 6 7 8 8 9 10 12 13 14 14 14 15 15 16 16 16 15 14 13 12 11 11 11 11 12 12 12 12 12 12 12 12 12 12 12 12 12 12 12 12 12 12 12 12 12 12 12 12 12 12 12 12 12 12 13 13 13 13 13
5 5 5 4 4 3 3 3 2 3 3 3 3 4 4 3 4 4 4 4 5 5 5 5 6 6 6 7 8 8 9 10 12 13 13 14 14 15 15 16 17 17 17 16 14 12 11 11 11 12 12 12 13 13 13 13 13 13 13 13 13 13 13 12 12 12 12 12 12 12 12 12 12 12 12 12 12 12 12 12 13 13 13 13 13 14
5 5 5 4 4 3 3 2 2 3 3 3 3 3 3 3 3 4 4 5 5 6 6 7 7 7 7 7 8 9 10 11 12 13 13 13 14 14 15 16 18 18 18 16 14 12 12 12 12 13 13 13 14 14 14 14 14 14 14 14 13 13 13 13 13 13 12 12 12 12 12 12 12 12 12 12 12 12 13 13 13 14 14 14 14 14
5 4 4 4 4 3 3 2 2 3 3 3 3 4 4 4 5 6 7 8 7 7 8 8 8 7 7 8 9 10 10 11 12 13 13 13 13 14 16 17 18 18 18 16 15 15 15 15 15 15 16 16 16 16 16 16 16 15 15 15 14 14 13 13 12 12 12 11 11 11 12 12 12 12 12 13 13 13 13 14 14 14 15 15 15 15
6 5 4 4 4 3 3 2 2 3 3 3 4 5 6 6 6 7 9 10 10 9 8 8 8 8 9 9 9 10 11 12 12 13 13 14 15 16 17 18 18 18 17 16 16 17 17 17 18 18 18 18 18 18 17 17 17 16 15 15 14 13 13 12 11 11 11 11 11 11 12 12 12 13 13 13 13 14 14 14 15 15 15 16 16 16
5 5 4 4 3 3 2 2 2 2 4 5 6 8 8 8 7 8 10 10 9 8 8 8 8 9 9 9 10 10 11 12 13 14 14 15 16 17 18 19 19 18 17 16 16 16 17 18 18 18 18 18 18 17 17 16 15 15 14 13 13 12 11 11 10 11 11 11 11 12 12 13 13 13 13 14 14 14 15 15 15 15 16 16 16 17
4 4 3 3 2 2 2 2 3 4 5 6 7 7 6 6 7 8 9 9 8 8 7 7 8 8 9 9 10 11 12 13 14 14 15 16 17 18 20 21 20 19 17 16 15 15 15 15 16 16 16 16 15 15 14 13 13 12 12 11 11 10 10 10 11 11 11 12 12 12 13 13 13 14 14 14 14 15 15 15 16 16 16 17 17 17
3 2 1 1 1 1 2 3 4 4 5 5 6 6 6 6 6 6 7 7 7 7 7 8 8 8 8 9 10 11 12 13 13 14 15 17 18 19 21 21 21 19 16 14 13 12 11 12 12 12 13 12 12 12 12 11 11 11 10 10 10 10 10 11 11 12 12 12 13 13 13 13 14 14 14 15 15 15 16 16 16 17 17 17 17 18
1 1 1 2 2 2 2 3 4 5 5 6 6 6 6 6 5 5 5 5 6 7 6 6 6 7 7 8 9 10 11 12 13 14 16 19 21 21 21 21 20 18 15 12 10 9 8 9 9 10 10 10 10 10 10 10 10 10 10 10 10 10 11 11 12 12 13 13 13 13 14 14 14 15 15 15 16 16 16 17 17 17 17 18 18 18
3 2 3 4 4 4 4 4 5 5 5 5 5 5 4 4 4 4 4 5 5 5 5 4 4 5 6 6 7 8 9 10 13 15 18 21 23 23 21 19 18 16 13 11 8 6 6 7 7 8 8 9 9 9 9 9 9 9 10 10 11 11 11 12 12 13 13 13 14 14 14 15 15 15 15 16 16 16 17 17 17 17 18 18 18 18
4 4 4 4 4 4 4 4 4 4 4 4 4 3 3 3 3 3 4 4 4 4 4 4 4 4 5 6 6 7 9 12 15 18 20 23 24 23 20 18 16 14 12 9 7 5 5 6 6 7 8 8 8 8 8 9 9 10 10 11 11 11 12 12 12 13 13 14 14 14 15 15 15 15 16 16 16 16 17 17 17 17 18 18 18 19
3 3 3 3 3 3 3 3 3 3 3 2 2 1 1 2 3 3 3 4 4 4 4 4 5 5 6 7 8 9 12 14 16 18 20 21 22 22 19 17 15 13 11 9 7 5 5 6 7 7 7 8 8 8 9 9 10 10 10 11 11 11 12 12 13 13 14 14 14 15 15 15 15 16 16 16 16 16 17 17 17 17 18 18 19 19
3 3 3 3 3 3 2 2 2 2 2 2 2 2 2 2 3 4 4 5 6 6 7 7 7 7 7 8 9 10 13 15 16 17 18 19 20 20 18 15 13 13 12 10 8 7 7 7 8 8 8 8 8 9 9 10 10 10 11 11 11 12 12 13 13 13 14 14 14 14 15 15 15 15 16 16 16 17 17 17 18 18 18 19 19 19
2 2 3 3 3 3 2 3 3 3 3 4 3 3 3 4 5 6 6 7 7 8 9 9 8 8 9 9 10 12 14 15 15 15 15 17 18 18 16 14 13 13 13 12 10 9 9 9 9 9 9 9 10 10 10 10 10 11 11 11 11 12 12 12 13 13 14 14 14 14 14 15 15 15 16 16 17 17 17 18 18 18 19 19 19 19
2 2 3 4 4 4 5 5 6 6 6 7 6 5 5 6 6 6 7 7 8 8 9 9 9 9 11 12 13 14 15 15 14 13 13 13 15 16 14 13 13 14 15 14 13 11 11 11 11 10 10 11 11 11 11 10 10 10 11 11 11 11 12 12 13 13 13 13 14 14 14 15 15 16 16 17 17 18 18 18 18 19 19 19 19 19
3 3 4 5 6 6 7 8 8 8 8 8 9 9 8 8 7 7 8 8 8 8 8 9 10 11 13 13 14 14 14 13 13 12 10 9 11 14 13 14 14 16 17 16 15 14 13 13 12 12 12 12 12 11 10 10 10 10 10 10 10 11 11 12 12 12 13 13 14 14 15 16 16 17 17 17 18 18 18 18 18 18 18 18 19 19
3 3 4 4 5 5 6 6 6 7 7 8 8 8 8 8 8 8 8 9 8 8 9 10 11 12 13 13 13 13 13 11 11 9 8 8 10 13 14 15 16 17 18 17 16 15 15 15 14 13 13 13 12 11 10 9 9 9 9 9 10 10 11 11 12 12 13 14 15 16 16 17 17 17 17 18 18 18 18 18 18 18 18 18 18 19
1 1 2 3 3 4 5 5 6 6 7 7 7 7 8 8 8 9 9 9 8 8 9 10 11 12 12 13 12 12 12 11 9 8 8 8 10 13 14 15 15 17 18 18 17 17 18 18 17 15 14 13 11 9 8 8 8 8 8 9 9 10 11 12 13 14 15 16 17 17 17 17 17 17 17 17 17 17 17 17 17 18 18 18 19 19
2 2 3 3 3 3 4 4 5 6 6 7 7 8 8 9 9 9 9 9 9 9 9 10 11 12 12 12 11 11 11 10 9 9 9 8 10 13 14 14 14 15 18 20 20 20 20 21 19 17 15 12 10 7 7 7 7 8 8 9 10 11 12 14 15 16 17 17 17 17 16 16 16 16 16 16 16 17 17 17 17 18 18 18 19 20
1 1 2 3 3 4 5 5 5 5 6 6 7 8 8 9 9 10 10 10 9 9 9 10 10 11 11 11 10 10 10 10 11 11 10 11 11 11 12 12 13 15 18 21 23 23 22 22 21 18 15 11 8 6 6 7 8 9 10 11 12 14 15 17 17 17 16 16 15 15 15 15 15 15 16 16 16 17 17 17 17 18 18 19 19 20
3 4 5 6 8 9 10 10 10 10 9 8 7 7 8 9 9 9 10 10 9 9 9 10 10 9 9 10 10 12 12 12 12 11 11 10 9 8 10 11 12 14 18 22 24 25 23 21 18 16 12 9 7 6 7 8 9 11 12 14 16 17 17 17 16 15 14 13 13 13 13 14 15 15 16 16 17 17 17 17 17 18 18 18 19 19
7 7 8 10 11 12 13 13 13 14 13 12 10 9 9 10 10 10 10 10 9 9 10 11 11 10 10 11 13 14 14 13 11 9 8 7 6 7 8 9 11 14 17 20 21 21 19 17 15 12 9 8 7 7 9 11 13 15 16 17 17 17 16 14 13 13 12 12 13 13 14 15 15 16 16 16 17 17 17 17 17 18 18 18 19 20
9 10 11 12 13 14 14 14 14 14 14 13 12 12 13 13 13 12 12 12 11 10 11 11 12 11 11 11 11 10 9 7 5 4 5 5 5 6 8 9 11 13 15 15 13 12 13 14 12 9 7 8 10 13 15 17 18 18 18 17 16 15 14 13 13 13 13 13 14 14 15 15 16 16 16 16 17 17 17 17 17 18 18 19 20 20
12 13 14 15 15 16 15 14 13 12 12 12 13 13 14 15 15 15 14 14 13 12 12 12 12 12 11 8 5 4 3 2 2 4 5 5 5 7 9 10 11 12 12 10 7 6 7 9 9 8 10 14 18 21 22 22 21 20 18 17 16 15 15 14 14 15 15 15 16 16 16 16 16 16 16 16 17 17 17 17 17 18 18 19 20 21
15 16 16 17 17 17 16 14 12 11 10 11 11 12 12 13 14 14 14 13 13 13 13 12 12 12 11 9 7 6 6 6 7 8 9 8 8 10 11 11 11 11 10 8 6 4 3 6 10 14 19 22 24 24 24 23 21 20 18 17 17 17 16 16 16 16 17 18 18 18 17 17 17 16 16 16 17 17 17 17 17 17 18 19 20 21
16 17 18 18 18 17 15 12 10 9 9 9 9 9 9 10 10 11 11 11 12 12 12 12 12 12 12 12 12 12 12 12 11 11 12 11 11 11 11 11 11 11 11 10 9 8 8 11 15 21 24 24 24 23 22 21 20 19 18 17 17 18 18 18 19 19 20 20 20 19 19 18 18 17 17 17 17 17 17 17 17 17 17 18 19 20
16 17 18 19 18 16 13 10 8 7 7 7 7 7 7 7 8 8 9 9 10 10 11 11 11 11 11 11 12 13 14 13 12 11 11 11 11 12 12 12 12 12 12 12 11 11 13 15 17 18 20 22 22 21 20 20 19 18 17 17 18 19 20 21 21 22 22 21 21 21 20 20 19 19 18 18 18 18 18 17 17 17 17 17 18 19
17 18 19 19 17 14 10 7 6 5 5 5 5 6 6 6 7 7 8 8 9 10 10 11 11 11 11 11 12 13 14 14 12 11 10 11 12 13 13 13 13 12 12 12 12 11 12 14 16 16 17 20 21 21 19 18 18 17 17 18 19 20 22 22 22 22 22 22 22 22 21 21 21 21 20 20 19 18 18 17 17 17 17 18 18 19
18 20 20 18 15 11 8 6 5 5 5 5 6 6 6 7 7 8 8 9 9 10 10 11 11 12 13 14 14 15 16 16 15 13 12 13 13 14 14 14 14 13 12 13 13 12 13 14 16 16 17 17 19 20 19 18 18 18 19 20 21 22 22 22 22 21 22 22 22 22 22 22 22 22 21 21 20 18 18 18 18 19 19 19 19 20
20 20 19 16 12 9 7 6 6 6 6 6 7 7 7 8 9 9 10 10 11 11 12 12 13 14 15 16 17 18 19 19 18 17 16 15 16 16 16 16 15 14 13 13 13 14 14 15 16 16 16 16 16 17 19 19 20 20 20 21 21 21 22 21 21 20 20 21 22 23 23 22 22 22 21 21 20 19 20 20 20 20 20 20 20 20
19 18 15 12 9 7 7 7 7 7 7 8 8 9 9 10 10 11 12 12 13 13 14 15 15 16 17 17 18 19 19 19 19 18 17 17 17 18 18 18 17 16 15 14 14 15 15 15 14 14 15 16 17 18 19 20 20 21 21 21 21 21 21 20 19 19 19 20 22 23 23 22 22 22 22 21 21 22 22 22 21 21 20 19 19 20
15 13 11 9 7 7 7 7 7 8 8 9 9 10 11 12 12 13 13 14 14 15 15 16 16 16 17 17 17 18 18 18 17 17 16 16 16 16 17 17 17 17 16 16 16 16 16 16 15 14 15 16 18 19 20 19 20 20 21 22 22 21 19 18 18 18 19 21 22 23 22 22 21 21 22 22 21 21 21 21 21 20 20 20 20 20
10 9 7 7 6 7 7 7 8 8 9 10 11 12 12 13 13 14 14 14 15 15 14 14 14 14 14 14 14 15 15 15 15 15 14 14 13 14 15 16 17 17 17 17 17 17 17 17 17 18 18 18 18 20 20 20 20 20 21 21 21 20 19 18 19 19 20 20 20 21 21 21 21 21 21 20 20 20 20 21 21 21 20 20 21 21
7 6 6 6 7 7 7 8 8 9 10 11 11 12 12 13 14 14 14 14 14 13 12 11 11 11 12 12 12 12 12 12 12 12 11 11 11 12 14 15 17 17 17 17 18 18 18 18 18 19 19 19 20 21 22 22 21 20 20 20 21 22 23 21 20 19 19 19 19 19 19 20 20 20 20 20 21 21 21 21 22 22 22 22 21 21
6 6 6 7 7 8 8 9 9 10 10 11 11 12 12 12 13 13 13 12 12 11 10 9 10 11 12 13 12 11 10 10 9 9 9 9 10 11 13 14 15 16 17 18 18 18 18 18 18 19 19 19 20 20 22 22 22 20 19 20 22 23 23 22 19 17 17 18 18 19 19 20 20 21 21 22 22 22 22 22 23 23 23 22 22 22
7 7 8 8 8 9 9 9 9 10 10 11 11 11 11 10 10 10 10 10 10 10 9 9 10 12 13 14 14 12 11 9 8 8 8 9 10 11 12 13 14 16 17 18 18 18 18 18 18 19 19 19 20 21 22 23 22 21 20 20 21 20 19 20 20 18 18 19 20 20 20 21 21 21 22 22 23 23 23 24 24 23 23 23 23 24
9 9 9 9 9 9 9 9 10 10 11 11 11 10 8 7 7 7 8 9 10 9 9 9 10 12 13 13 13 13 12 11 9 8 8 9 9 11 12 13 14 15 16 18 19 19 19 19 19 19 19 19 20 21 22 23 23 23 22 21 20 20 20 21 22 21 21 21 21 20 20 21 21 22 22 23 23 24 24 24 25 25 24 24 25 25
10 10 9 9 8 8 8 9 11 11 11 11 11 10 7 6 5 6 7 8 9 9 9 9 10 11 11 12 12 12 12 13 12 11 10 9 9 10 11 12 13 14 16 18 19 20 19 19 19 19 19 19 20 21 22 23 23 23 23 22 21 21 22 23 23 22 22 22 22 21 21 21 21 22 23 23 23 24 24 24 25 25 25 25 25 26
10 10 10 9 9 9 9 10 11 11 12 12 12 11 8 6 5 6 7 8 9 9 9 10 10 10 11 11 12 13 13 14 14 14 13 12 11 10 11 11 13 14 16 18 19 20 21 21 21 21 21 21 21 22 23 22 22 23 23 22 21 21 22 22 22 21 21 22 22 22 22 22 22 22 22 23 24 25 25 25 24 25 25 25 25 25
10 10 10 10 10 10 10 11 11 11 12 13 13 12 10 7 5 6 6 7 8 9 10 11 11 11 11 12 13 13 14 15 16 16 16 16 15 14 13 13 13 14 15 17 18 19 21 22 23 23 22 21 22 22 23 22 22 22 22 22 22 21 22 22 22 21 21 21 22 22 22 22 22 22 23 23 24 25 26 25 25 24 24 24 24 24
10 10 11 11 11 11 11 11 11 11 12 13 14 13 11 7 6 7 7 8 9 10 11 11 11 11 12 13 13 13 13 14 15 16 17 17 17 16 15 15 14 15 15 17 18 19 21 22 23 24 24 23 22 22 23 23 22 22 22 22 21 21 22 23 22 22 21 21 22 23 23 22 21 21 22 23 25 26 26 26 25 24 24 24 24 24
11 11 12 12 12 13 13 12 11 11 12 13 14 14 12 9 7 7 8 9 10 11 11 11 11 12 12 13 13 13 13 14 14 15 16 16 16 16 16 16 16 16 16 17 18 19 20 21 22 23 23 24 24 24 24 24 23 22 21 21 21 21 22 22 22 22 21 21 22 23 23 22 22 22 22 23 25 27 28 28 27 26 24 23 23 23
12 13 13 13 14 14 14 13 12 12 13 13 14 14 13 11 9 8 9 10 11 11 12 12 12 12 12 13 13 13 13 14 14 15 15 15 15 15 16 16 16 16 16 16 16 16 17 18 19 20 20 21 23 24 25 24 24 23 22 21 21 21 21 22 23 22 22 22 23 23 23 23 23 22 22 22 24 27 28 28 28 26 24 23 22 23
14 14 14 14 14 15 14 14 13 13 13 13 13 13 12 12 11 11 11 11 11 11 12 12 12 12 12 13 13 13 13 14 14 14 15 15 15 15 15 15 15 15 15 14 14 14 14 13 14 16 18 17 18 20 22 24 24 23 22 23 22 22 22 23 23 24 24 24 24 24 24 23 22 21 20 20 22 24 26 27 28 27 25 23 23 24
Wind_Direction
231 225 219 213 204 196 193 193 190 186 184 184 185 191 203 211 217 224 232 240 248 253 258 261 263 263 263 260 255 247 239 233 233 239 251 260 266 267 267 267 267 268 270 273 276 279 281 282 283 283 283 282 282 282 281 281 281 281 281 281 282 282 282 282 283 284 284 284 284 284 284 283 283 283 283 282 281 280 280 280 280 280 280 280 280 280
211 212 206 205 201 196 195 198 198 198 200 202 205 209 217 226 235 243 249 254 259 262 264 265 264 262 258 252 244 234 227 224 232 246 259 264 267 267 267 267 267 268 270 274 278 282 285 286 286 285 284 282 281 280 280 280 280 280 280 281 282 282 282 282 282 283 284 283 283 283 282 282 282 282 281 281 281 280 279 279 278 278 278 279 279 278
187 189 191 196 198 198 199 203 207 211 215 219 222 225 230 237 246 254 260 263 265 266 266 264 259 253 243 232 221 212 211 222 239 253 262 266 268 268 267 266 266 269 273 279 284 287 289 290 289 286 283 281 279 278 278 278 278 279 279 279 280 280 281 282 282 282 281 282 282 281 280 280 280 280 279 279 278 278 278 277 278 278 278 279 279 278
178 177 183 189 194 198 201 205 209 214 219 224 229 233 239 244 251 257 262 264 264 263 259 252 241 229 216 205 196 193 203 224 241 253 263 267 268 267 266 266 267 271 276 282 287 290 292 291 289 285 281 278 277 276 276 276 276 277 277 278 278 279 280 281 281 281 282 281 281 281 280 279 278 278 277 277 277 278 278 278 278 279 279 280 280 279
173 176 182 186 188 193 200 204 208 214 220 226 231 237 243 248 253 256 258 257 253 247 237 224 212 203 199 195 195 198 209 227 244 256 264 266 265 264 264 266 270 274 279 284 288 292 292 290 287 283 279 276 274 273 273 274 275 276 277 277 278 278 279 279 280 280 281 280 279 279 278 278 277 277 277 277 278 278 278 278 279 279 279 279 279 279
171 178 186 187 187 189 197 204 210 216 222 228 234 239 244 246 247 244 239 230 219 208 199 196 197 200 206 211 220 227 233 240 252 258 259 257 255 255 258 263 269 275 281 286 291 293 292 289 285 281 277 274 272 272 273 273 275 276 276 277 277 278 278 278 279 279 279 278 278 278 278 278 278 278 278 278 278 278 278 278 278 278 279 278 279 279
172 183 190 191 192 195 199 207 215 222 224 226 228 229 227 222 213 202 193 187 186 188 193 201 209 218 227 233 239 241 243 244 246 247 246 246 249 253 258 264 270 276 283 289 293 294 291 287 283 278 275 273 273 273 274 274 275 276 277 277 278 278 279 279 279 278 278 278 278 278 278 278 278 278 278 278 278 278 278 278 278 278 277 277 278 278
163 177 187 188 191 194 196 198 203 206 203 196 188 180 176 174 172 173 179 186 194 205 214 223 227 232 238 244 247 248 246 242 239 239 243 248 254 259 263 268 274 280 286 290 293 292 288 284 279 275 273 272 272 273 274 275 275 275 275 275 275 276 277 278 277 277 277 277 277 277 277 277 277 277 277 277 277 277 277 277 277 277 276 276 276 277
152 158 169 176 171 161 156 153 144 137 142 145 147 148 154 165 176 189 202 213 221 227 235 243 249 252 253 252 250 246 243 239 239 243 248 254 259 265 269 275 280 285 289 291 290 288 284 279 275 272 270 270 271 272 273 273 273 272 272 272 272 272 273 274 274 274 274 274 275 275 276 276 276 276 276 276 276 276 275 276 276 275 275 275 275 276
160 158 160 167 165 154 142 139 137 136 138 145 155 169 186 205 222 236 245 245 245 247 251 257 262 262 257 248 242 238 237 240 244 250 255 261 266 272 279 285 289 292 292 290 285 279 274 270 268 268 268 269 270 270 270 270 269 269 269 269 269 269 270 271 271 272 273 273 274 274 275 275 275 275 275 275 274 275 275 274 274 275 275 275 275 275
155 164 164 164 163 163 156 152 153 157 166 179 196 207 218 228 239 253 262 265 264 261 260 258 253 244 235 230 230 235 240 244 250 256 261 266 272 279 286 291 295 296 293 286 278 270 266 263 263 264 265 267 268 268 268 267 267 267 267 267 267 268 268 270 271 272 273 274 274 274 275 275 275 275 274 274 274 274 274 275 275 275 275 275 275 275
148 157 165 169 171 172 171 172 176 188 204 223 239 246 245 239 242 250 256 260 261 258 251 243 233 223 219 222 231 241 248 252 256 261 266 271 277 283 289 293 296 295 290 282 274 268 264 263 263 264 265 266 266 266 266 266 266 266 266 266 267 267 267 269 271 273 274 275 274 274 274 275 275 275 275 275 275 275 275 275 275 275 276 276 276 276
147 153 162 170 177 183 188 201 226 239 243 244 246 248 253 251 249 248 251 254 252 246 239 230 224 223 228 236 243 251 258 262 265 269 273 277 282 287 292 295 297 295 290 281 273 268 265 264 264 264 264 264 264 264 264 264 264 265 265 265 266 266 267 270 273 274 275 275 275 274 274 274 275 275 276 276 276 276 276 276 277 277 277 277 278 278
141 149 155 162 173 195 217 237 246 247 247 247 248 251 258 259 254 249 247 247 245 243 242 235 232 235 244 251 257 263 268 271 275 278 281 284 289 293 297 299 300 298 293 285 277 269 265 262 261 260 260 259 260 260 260 260 260 261 261 262 263 266 269 273 275 275 275 275 275 275 275 274 275 275 276 276 276 277 277 277 278 278 278 278 278 278
130 139 148 166 207 231 243 252 259 261 261 261 262 264 268 268 263 256 250 243 242 245 247 244 244 249 257 262 267 271 276 279 282 285 287 290 293 297 301 302 302 300 295 289 280 271 262 257 254 252 252 251 252 253 253 254 256 256 258 261 264 269 273 275 275 275 275 275 276 276 276 276 276 276 276 277 277 277 278 278 278 278 278 278 278 278
80 56 344 319 309 301 292 287 286 285 285 285 285 283 277 273 270 265 255 241 240 242 243 243 251 260 264 267 269 273 277 282 286 290 293 295 296 299 302 304 303 300 296 290 282 270 257 248 245 244 244 244 246 248 250 252 254 257 261 264 267 269 271 273 274 274 275 276 276 277 277 277 277 277 277 277 277 277 277 278 278 278 278 278 278 278
22 4 345 333 329 327 322 315 310 306 303 301 299 293 281 267 261 254 242 234 233 234 236 249 265 275 272 266 267 272 279 286 291 295 298 298 299 300 303 303 302 300 297 290 282 269 253 244 241 241 243 244 246 249 253 256 260 264 266 267 267 267 268 270 271 273 275 276 277 277 277 277 277 277 277 277 277 277 276 277 277 277 277 277 277 277
8 3 354 347 345 343 340 335 329 323 319 315 307 295 272 250 239 234 231 232 233 237 250 264 271 276 281 276 275 280 285 291 296 299 301 300 300 301 303 304 303 300 297 292 284 273 261 254 251 251 252 252 254 259 264 268 270 270 269 268 268 268 270 272 273 274 275 276 277 278 278 278 278 278 278 278 277 277 276 276 276 276 277 277 277 277
13 13 13 14 10 1 352 351 351 350 349 347 337 301 240 235 238 243 250 260 266 272 278 281 278 276 278 279 282 287 290 293 298 302 303 301 300 302 304 305 304 301 297 294 291 286 278 270 267 265 264 265 269 274 278 279 278 275 273 271 271 271 273 274 275 276 277 278 279 279 279 279 279 278 278 277 277 277 276 276 276 276 276 276 277 277
26 27 28 26 19 12 8 5 359 359 5 353 337 316 290 284 286 287 289 291 291 291 290 287 281 278 279 281 285 290 293 297 301 304 302 300 299 301 304 305 305 301 299 297 298 297 291 285 280 277 275 277 282 286 287 286 283 279 275 273 273 273 274 276 277 278 279 279 279 279 279 279 279 278 278 278 277 278 278 277 277 277 277 277 277 277
19 17 5 356 357 360 356 345 334 329 326 322 317 312 303 303 301 299 297 297 296 296 295 289 283 281 283 282 286 292 295 300 303 305 302 298 297 299 303 306 306 303 301 300 301 301 298 292 287 284 285 289 293 295 293 289 284 279 275 273 272 273 275 277 278 278 278 278 279 280 280 280 280 280 279 279 279 279 279 278 278 278 278 278 278 277
334 326 320 318 317 315 313 310 308 306 305 306 308 310 307 305 301 295 293 294 294 294 292 290 288 287 287 287 289 292 295 299 302 302 300 295 293 295 302 307 307 304 302 302 303 303 299 294 290 288 291 297 300 300 296 289 283 278 274 272 272 274 276 277 277 277 277 277 279 281 282 282 282 282 281 281 280 280 280 280 279 279 279 278 278 278
291 290 292 294 292 292 291 291 292 293 294 293 294 297 301 302 298 294 293 292 292 291 291 292 292 291 290 291 292 293 295 297 299 300 296 287 288 294 302 306 306 303 301 303 304 304 299 294 291 291 295 301 304 302 295 287 281 276 273 272 272 274 275 276 277 278 278 280 282 284 284 284 284 283 283 282 282 281 281 280 280 280 279 279 278 278
275 282 288 291 292 293 294 297 299 301 300 298 297 298 301 301 299 297 296 295 293 292 293 294 294 294 293 293 294 295 295 297 299 297 290 280 285 293 300 304 305 303 302 303 305 304 299 294 292 294 299 305 306 302 293 284 278 275 273 273 273 275 277 279 280 282 283 283 284 285 285 284 285 285 284 283 283 282 282 281 281 280 280 279 278 278
321 331 331 334 336 332 326 323 322 322 316 314 311 309 305 300 297 295 293 292 291 293 296 299 299 298 298 299 300 300 299 300 299 294 286 283 286 291 297 302 305 305 304 304 304 303 300 297 295 298 304 309 309 302 290 281 275 273 273 274 276 279 282 284 285 286 287 287 287 286 286 285 285 285 285 284 284 283 283 282 281 281 280 280 279 278
49 26 10 1 354 340 326 320 322 324 319 318 315 308 299 292 287 284 282 283 287 292 297 299 298 298 299 301 301 301 303 304 301 293 285 284 287 291 295 301 305 307 307 306 305 304 304 302 301 304 310 314 311 299 286 276 272 272 275 277 280 283 286 288 289 289 289 289 289 288 287 286 286 285 285 285 285 284 284 283 283 282 282 281 280 279
42 9 340 320 303 292 287 283 284 291 300 306 310 306 297 289 283 280 278 280 283 285 287 288 291 294 298 298 297 299 302 301 298 293 288 283 284 288 294 302 308 311 311 309 307 307 307 306 306 310 314 316 311 296 283 277 276 277 281 285 288 290 292 293 293 293 292 291 290 289 288 288 287 287 287 287 286 286 285 284 284 283 283 282 281 279
286 290 292 295 294 292 289 285 280 277 276 279 286 295 295 290 285 280 278 278 278 278 277 277 281 287 292 294 296 298 300 297 296 293 290 283 277 281 292 304 312 315 316 314 311 309 308 307 309 312 315 315 308 294 285 283 284 287 291 293 296 296 297 297 297 296 296 295 294 293 292 291 290 289 289 288 287 286 286 285 285 285 284 283 281 279
290 294 299 303 304 303 300 295 289 282 276 271 272 275 278 278 277 276 274 275 274 273 269 268 269 274 281 290 297 299 299 296 295 293 286 280 274 280 294 305 314 320 324 323 318 314 311 308 310 312 313 309 302 295 291 292 294 296 299 300 301 301 302 303 303 303 303 303 301 299 297 295 293 291 289 288 287 287 286 286 286 286 285 282 280 279
296 299 303 307 309 310 307 302 295 286 277 269 265 262 261 263 265 267 269 271 270 269 267 266 265 268 274 288 299 303 299 298 300 296 287 285 282 287 300 309 316 323 330 331 328 320 313 308 307 305 305 304 302 301 301 302 304 306 307 308 309 310 311 312 312 311 309 307 305 303 300 297 294 292 291 289 287 286 286 286 286 286 284 282 281 280
306 309 312 313 314 315 313 308 300 289 278 268 263 259 259 260 262 265 266 268 268 267 267 268 268 268 269 277 288 300 294 314 316 306 305 303 295 294 303 309 314 319 328 335 336 324 315 310 306 303 304 306 306 306 308 310 313 316 318 319 319 319 319 318 316 313 310 307 305 303 301 299 296 294 292 290 288 287 286 285 285 285 283 282 282 281
312 315 316 318 318 318 315 310 302 292 281 272 266 264 263 263 264 265 266 266 266 266 266 268 270 270 267 262 255 253 266 280 292 297 302 301 297 295 300 305 308 311 317 320 313 301 299 303 303 304 306 307 308 309 312 315 318 321 322 322 320 319 319 318 315 311 309 307 305 303 302 300 298 296 294 292 291 289 288 286 285 283 282 282 281 281
311 313 316 318 319 318 315 310 302 293 285 278 273 270 269 267 267 267 266 266 265 264 264 266 267 268 267 262 258 258 263 269 277 286 292 293 293 293 296 298 300 303 305 304 294 281 274 282 294 301 305 306 308 310 312 314 316 318 319 318 317 316 316 315 313 311 309 307 306 305 303 302 300 299 297 295 294 292 289 287 284 282 280 280 280 280
308 310 313 316 318 317 314 307 298 291 284 279 276 272 269 267 265 264 263 262 262 262 262 262 263 264 264 262 263 264 265 267 271 278 282 283 283 286 290 292 294 297 299 298 293 285 279 280 287 296 302 304 305 306 308 311 313 315 315 314 312 312 312 312 312 311 310 309 308 307 305 305 304 303 300 298 296 294 291 288 285 281 279 278 278 279
305 308 312 315 316 315 309 300 289 280 275 271 268 264 262 260 260 260 260 261 260 261 261 262 263 264 265 263 265 267 268 270 274 277 275 272 275 280 285 286 288 291 293 293 292 290 288 286 287 291 296 300 302 302 304 307 310 311 310 309 308 308 309 310 311 311 311 310 308 308 308 307 307 305 303 301 298 295 291 288 284 281 278 277 276 277
305 308 311 313 313 310 300 289 278 268 263 261 259 259 259 259 259 259 261 262 262 263 263 263 263 264 265 265 265 267 270 275 278 278 273 270 270 274 278 279 282 285 286 287 287 287 288 289 289 290 291 293 296 299 301 305 307 307 306 306 306 307 308 309 310 310 310 308 307 306 307 306 305 303 301 300 297 293 289 285 283 281 280 278 277 275
305 307 308 309 307 300 288 279 273 269 265 263 262 262 263 263 263 263 263 264 265 266 267 266 265 264 263 264 266 268 272 275 277 276 272 269 269 269 270 273 277 278 278 279 282 285 286 288 290 290 288 286 288 294 299 304 306 305 304 304 305 306 307 308 309 308 307 305 304 303 303 302 301 299 298 297 295 292 289 287 285 285 283 281 279 277
302 304 304 303 298 288 280 276 274 273 271 270 270 268 267 267 268 268 268 268 269 269 270 269 268 267 265 265 266 267 269 271 272 272 271 269 268 267 267 269 272 273 272 273 275 279 281 283 286 288 287 286 287 290 295 301 303 304 303 304 304 304 303 305 305 304 302 301 300 300 299 298 298 297 297 297 296 295 294 293 292 290 288 286 284 281
298 298 297 294 288 282 278 278 278 277 276 275 274 272 271 271 271 272 274 275 275 274 274 274 273 272 271 270 269 269 269 270 270 270 270 268 267 267 267 269 270 272 272 272 272 272 272 274 276 280 285 289 291 292 294 296 298 300 303 304 304 302 301 302 302 300 298 297 297 297 297 297 297 298 298 298 298 297 295 294 293 292 290 290 288 286
292 290 287 284 281 280 279 280 280 280 279 277 276 275 275 276 277 278 278 278 278 277 277 277 277 277 277 277 276 274 273 273 272 271 269 268 267 267 269 270 271 272 274 273 271 269 267 268 271 274 279 284 288 291 293 294 295 297 301 303 302 301 300 301 299 297 296 295 295 295 295 297 298 298 297 296 295 293 292 291 291 290 289 289 288 288
284 280 279 278 278 278 279 279 278 279 279 279 279 280 282 284 285 284 282 279 278 277 277 278 280 281 281 282 282 282 281 279 277 274 272 270 268 268 268 270 271 273 273 272 270 267 266 267 270 274 276 280 284 287 289 289 291 294 296 296 296 296 298 298 297 296 295 295 294 293 294 295 295 294 293 292 291 289 288 288 288 289 289 287 285 284
279 278 279 280 281 280 278 276 276 277 278 279 282 286 289 291 291 291 288 285 282 282 283 287 292 295 296 294 293 292 292 291 288 284 280 277 274 272 271 271 272 273 273 272 270 268 266 267 269 272 275 279 282 285 286 288 289 290 290 290 293 296 298 297 296 295 295 294 293 293 292 292 292 291 291 290 289 289 288 286 286 286 285 283 281 279
279 281 284 286 286 282 280 280 280 280 279 281 286 291 295 295 293 290 290 290 290 292 295 299 303 305 305 304 304 306 308 306 302 297 292 286 281 277 275 274 274 274 274 271 270 269 270 270 269 270 273 277 279 281 284 286 288 289 287 287 290 293 295 295 296 297 295 294 292 292 291 290 290 291 291 290 288 288 287 285 284 282 280 279 278 278
282 285 287 290 290 289 290 288 285 284 284 288 295 301 303 297 289 285 287 290 292 295 299 304 308 308 306 304 306 310 313 312 309 304 297 290 284 279 277 274 273 273 273 271 269 270 272 273 272 272 274 275 277 278 280 283 286 287 287 286 285 284 283 287 292 295 294 293 291 290 289 290 290 290 290 289 288 287 286 285 283 282 280 279 278 278
284 286 287 287 286 285 285 284 285 287 290 296 304 312 316 307 291 283 287 291 293 296 301 308 311 309 304 302 305 309 310 308 308 307 305 299 292 286 282 280 278 276 275 273 271 270 270 271 273 276 278 276 275 275 277 279 282 284 284 284 283 281 280 283 286 289 290 290 290 289 290 290 291 290 289 288 287 286 285 284 283 282 282 281 280 279
279 281 282 281 280 281 283 285 289 293 298 301 307 315 321 318 300 286 286 291 296 300 305 311 309 303 298 300 304 307 308 307 307 308 309 310 309 304 298 293 289 285 282 279 276 274 272 271 273 277 279 279 277 275 274 275 277 280 282 283 283 283 283 283 283 284 285 286 287 288 290 291 290 289 287 287 287 287 286 284 283 282 282 282 281 280
275 276 277 279 281 283 285 289 292 294 296 298 303 311 319 319 307 294 292 294 299 304 307 308 304 297 293 295 298 301 303 303 304 305 307 310 312 312 309 305 299 294 289 286 282 279 276 275 274 273 273 274 276 276 275 274 274 275 278 281 283 283 283 283 283 283 283 283 284 286 289 290 288 286 285 286 287 287 287 286 284 283 283 283 282 281
274 275 276 279 282 285 288 290 291 291 290 293 299 308 316 318 311 303 300 299 301 302 302 300 298 294 292 291 291 293 294 295 297 300 302 305 308 310 311 310 307 302 296 292 287 283 280 277 275 271 268 267 269 272 275 275 274 274 275 278 279 280 281 282 283 284 284 283 283 285 286 285 284 283 285 287 288 288 288 287 286 285 284 283 282 280
271 273 275 278 281 284 286 288 289 289 290 294 300 307 314 316 311 301 299 299 300 299 296 294 293 292 290 289 288 289 289 289 291 294 297 300 303 306 308 308 307 304 299 294 289 285 282 279 275 271 266 262 262 266 271 273 274 274 274 275 275 276 279 281 283 285 285 285 285 285 285 283 281 281 282 283 285 287 288 288 287 286 285 283 282 280
269 271 273 277 280 281 283 285 286 287 289 293 298 303 308 310 308 303 299 298 297 295 292 290 289 288 286 286 286 286 286 286 288 290 293 296 299 301 303 303 303 301 297 294 291 288 286 283 280 275 268 262 259 260 264 269 272 274 274 273 273 275 277 280 282 284 285 285 286 286 286 284 282 280 279 279 281 284 287 287 287 287 286 285 283 281
268 270 272 274 276 278 279 281 283 285 287 290 294 297 299 300 300 299 297 295 293 291 288 287 285 283 282 282 283 283 283 283 284 286 289 292 295 297 297 298 297 296 296 296 295 295 293 291 289 286 280 269 259 257 260 264 269 273 274 274 275 275 277 279 282 284 285 286 286 286 285 284 282 280 278 277 279 283 286 287 287 287 287 286 285 283
Height
807 807 807 807 808 809 810 810 811 812 812 812 812 813 813 814 815 815 815 816 816 817 817 818 819 820 820 821 821 821 821 822 823 824 824 825 825 826 826 826 826 827 826 826 825 825 824 824 824 824 825 825 826 826 825 824 824 823 822 822 821 821 820 820 820 820 820 820 820 820 820 820 820 820 820 820 819 819 819 819 819 819 819 819 819 818
807 807 807 807 808 809 810 810 811 812 812 813 813 813 813 814 814 815 815 815 816 816 817 818 819 819 820 820 820 820 821 822 823 823 824 824 825 825 825 826 826 826 826 825 825 824 824 823 823 823 824 824 824 824 824 823 822 822 821 820 820 820 820 819 819 819 819 819 819 819 818 818 818 818 818 818 818 818 818 818 818 818 818 818 817 817
807 807 807 808 808 809 810 810 811 812 813 813 813 813 813 814 814 814 815 815 815 816 816 817 818 819 819 819 819 820 820 821 822 823 823 824 824 825 825 825 825 825 825 824 824 823 822 822 822 822 822 823 823 823 822 822 821 820 820 820 819 819 819 818 818 818 818 818 818 817 817 817 817 817 818 818 817 817 817 817 817 817 817 816 816 816
808 808 808 808 809 809 810 810 811 811 812 812 813 813 813 814 814 814 814 815 815 815 816 817 817 818 818 818 819 819 820 820 821 822 823 823 824 824 824 824 824 824 824 823 822 822 821 821 820 820 821 821 822 821 821 821 820 820 819 819 818 818 818 817 817 817 817 817 817 817 817 817 816 816 816 816 816 816 816 816 816 815 815 815 815 815
808 808 808 809 809 809 809 810 810 810 811 811 812 812 813 813 813 814 814 814 815 815 815 816 817 817 817 818 818 819 819 820 820 821 822 823 823 823 823 823 823 823 822 822 821 821 820 820 820 820 820 820 820 820 820 820 819 819 818 818 817 817 817 816 816 816 816 816 816 815 815 815 815 815 815 815 815 815 815 815 815 815 815 815 815 815
808 808 809 809 809 809 809 810 810 810 810 811 811 812 812 813 813 813 814 814 814 815 815 816 816 817 817 817 817 818 819 819 820 820 821 822 822 822 822 822 821 821 821 820 820 820 819 819 819 819 819 819 820 819 819 819 818 818 817 816 816 816 815 815 815 815 815 815 814 814 814 814 814 814 814 814 814 814 814 814 814 814 814 814 814 814
808 809 809 809 810 810 810 810 810 810 811 811 811 811 812 812 813 813 814 814 814 815 815 816 816 816 816 816 817 817 818 818 819 820 820 820 820 820 820 820 820 820 820 819 819 818 818 818 818 818 818 819 818 818 818 817 817 816 816 815 815 814 814 814 814 813 813 813 813 813 813 813 813 813 813 813 812 812 812 812 812 812 813 813 813 813
808 809 809 810 810 810 811 811 811 811 811 811 811 812 812 813 813 813 814 814 815 815 815 815 815 815 815 816 816 817 817 818 819 819 819 819 819 819 819 819 819 819 818 818 817 817 817 817 817 817 817 817 817 817 816 816 815 815 814 814 813 813 813 812 812 812 812 812 812 812 811 811 811 811 811 811 811 811 811 811 811 811 811 811 811 811
808 809 810 810 810 811 811 811 811 811 811 812 812 812 813 813 813 813 814 814 814 815 815 815 815 815 815 815 815 816 816 817 818 818 818 818 818 818 818 818 817 817 817 816 816 816 816 816 816 816 816 816 816 815 815 814 814 813 813 812 812 811 811 811 811 810 810 810 810 810 810 810 810 810 810 810 810 810 810 810 810 810 810 810 810 810
809 809 810 810 810 811 811 811 812 812 812 812 812 812 813 813 813 813 814 814 814 814 814 814 814 814 814 815 815 815 816 816 817 817 817 817 817 817 817 816 816 815 815 815 815 815 815 815 815 815 815 814 814 814 813 812 812 811 811 810 810 810 810 810 809 809 809 809 809 809 809 809 809 809 809 809 809 809 809 809 809 809 809 809 809 809
809 810 810 810 810 811 811 811 811 812 812 812 812 812 812 812 813 813 813 813 813 813 813 813 813 814 814 814 815 815 815 815 815 816 816 816 816 816 815 815 815 814 814 813 813 813 813 813 813 813 813 813 812 812 811 810 810 810 809 809 809 808 808 808 808 808 808 808 808 808 808 808 808 808 808 808 808 808 808 808 808 808 808 807 807 808
809 810 810 810 810 811 811 811 811 811 811 811 812 812 812 812 812 812 812 812 812 812 812 813 813 813 814 814 814 814 815 815 815 815 815 815 815 815 814 814 814 813 813 812 812 812 812 812 812 811 811 811 810 810 809 809 808 808 808 807 807 807 807 807 807 807 807 807 807 807 807 807 807 807 807 807 807 806 806 806 806 806 806 806 806 806
810 810 810 810 810 811 811 811 811 811 811 811 811 811 811 811 812 812 812 812 812 812 812 812 813 813 813 813 813 814 814 814 814 814 814 814 814 814 813 813 812 812 811 811 811 811 811 810 810 810 809 809 808 808 808 807 807 806 806 806 806 806 805 805 805 805 805 805 805 805 805 805 805 805 805 805 805 805 805 805 805 805 805 805 805 805
810 810 810 810 810 811 811 811 811 811 811 811 811 811 811 811 811 811 811 812 812 812 812 812 812 812 812 813 813 813 813 813 813 813 813 813 813 812 812 811 810 810 810 810 809 809 809 809 808 808 807 807 807 806 806 806 805 805 805 805 805 805 805 805 805 804 804 804 804 804 804 804 804 804 804 804 804 804 804 804 804 803 803 803 803 803
810 810 810 810 810 811 811 811 811 811 811 811 811 811 811 811 811 811 811 811 811 811 811 812 812 812 812 812 812 812 812 812 812 811 811 811 811 811 811 810 809 809 809 808 808 807 807 807 806 806 806 806 805 805 805 805 805 804 804 804 804 803 803 803 803 803 803 803 803 803 803 803 803 803 803 803 802 802 802 802 802 802 802 801 801 801
810 810 810 810 810 810 810 811 811 811 810 810 810 810 810 810 810 810 810 811 811 811 811 811 811 812 812 812 812 812 812 811 811 810 810 810 810 810 810 809 808 807 807 807 806 806 806 805 805 805 805 805 804 804 804 803 803 803 803 802 802 802 802 802 802 802 802 802 802 802 801 801 801 801 801 801 801 801 801 800 800 800 800 800 800 800
810 810 810 810 810 810 810 810 810 810 810 810 810 810 810 810 810 810 810 810 811 811 811 811 811 811 811 811 811 811 811 811 810 810 809 809 808 809 809 808 807 806 805 805 805 805 805 804 804 804 803 803 803 803 802 802 802 801 801 801 801 800 800 800 800 800 800 800 800 800 800 800 800 800 800 800 800 799 799 799 799 799 798 798 798 798
810 810 810 810 810 810 810 810 810 810 810 810 810 810 810 810 810 810 810 810 811 811 811 811 811 811 811 811 810 811 811 810 810 809 808 807 807 807 807 806 805 805 804 804 804 804 803 803 803 802 802 802 802 801 801 800 800 800 800 800 799 799 799 799 799 799 799 799 799 799 799 799 799 798 798 798 798 798 798 797 797 797 797 797 796 796
810 810 810 810 810 810 810 810 810 810 810 810 810 810 810 810 810 810 810 810 811 811 811 811 811 811 811 811 810 810 810 810 809 808 807 806 805 805 805 805 804 803 803 803 803 802 802 802 801 801 801 800 800 800 800 799 799 799 798 798 798 798 798 798 798 798 798 798 798 798 797 797 797 797 797 796 796 796 796 796 795 795 795 795 795 795
810 810 810 810 810 810 810 810 810 810 810 810 810 810 810 810 810 810 810 810 810 810 811 811 811 811 811 810 810 810 810 809 809 808 806 805 804 803 804 803 803 802 801 801 801 801 800 800 800 800 799 799 799 799 798 798 797 797 797 797 797 797 796 796 796 796 796 796 796 796 796 796 796 795 795 795 795 795 794 794 794 794 793 793 793 793
810 810 810 810 810 810 810 810 810 810 810 810 810 810 810 810 810 810 810 810 810 810 810 810 810 810 810 810 810 809 809 809 808 807 806 804 802 802 802 802 801 801 800 800 800 800 799 799 798 798 798 798 797 797 797 796 796 796 795 795 795 795 795 795 795 795 795 795 795 795 795 795 794 794 794 793 793 793 792 792 792 791 791 791 791 790
810 810 810 810 811 811 811 811 810 810 810 810 810 810 810 810 810 810 810 810 810 810 810 810 810 809 809 809 809 808 808 808 807 807 805 804 801 800 801 801 800 800 799 798 798 798 798 797 797 797 797 796 796 796 795 795 795 795 794 794 794 794 795 795 794 794 794 794 794 794 793 793 793 792 792 791 791 791 790 790 790 790 789 789 789 789
810 810 810 811 811 811 811 811 811 810 810 810 810 810 810 810 810 810 810 810 809 809 809 809 809 808 808 808 808 807 807 807 806 806 805 803 801 800 800 800 799 798 797 797 797 796 796 795 795 795 795 795 795 795 794 794 793 793 793 793 793 793 793 793 793 793 793 793 792 792 792 791 791 790 790 790 789 789 789 788 788 788 787 787 787 787
810 810 810 810 810 811 811 810 810 810 810 810 810 810 810 809 809 809 809 809 809 809 808 808 808 807 807 807 807 806 806 806 806 805 805 803 800 799 799 799 798 797 796 796 795 795 794 794 794 794 794 794 794 793 793 792 792 792 792 792 792 792 792 792 792 791 791 791 790 790 790 789 789 788 788 788 787 787 787 786 786 786 786 785 785 785
810 810 810 810 810 810 810 810 810 810 810 809 809 809 809 809 809 808 808 808 808 808 808 807 807 807 806 806 806 805 805 805 805 805 804 802 800 799 799 798 798 796 795 795 794 794 793 792 792 793 793 793 792 792 791 791 791 791 791 791 791 791 791 791 790 790 790 789 789 788 788 787 787 786 786 786 786 785 785 785 785 784 784 784 783 783
810 810 810 810 810 810 810 810 810 810 809 809 809 809 808 808 808 808 807 807 807 807 807 807 806 806 805 805 805 805 805 804 804 804 803 802 800 799 798 798 797 796 795 793 793 793 792 791 791 791 791 791 791 790 790 790 790 790 790 790 790 790 790 789 789 788 788 787 786 786 786 785 785 785 785 784 784 784 784 783 783 783 782 782 781 781
810 810 810 810 810 809 809 809 809 809 809 809 809 808 807 807 807 807 807 807 807 807 807 807 806 806 805 805 804 804 804 804 803 803 802 802 800 799 798 798 797 796 794 793 791 791 791 790 790 789 790 790 790 789 789 789 789 789 789 789 788 788 788 787 787 786 785 785 785 784 784 784 784 783 783 783 783 782 782 782 781 781 780 780 780 779
809 809 809 809 808 808 808 808 808 808 808 808 808 808 807 806 806 806 806 806 806 806 806 806 806 805 805 804 804 803 803 803 802 802 801 801 800 799 798 798 797 796 795 792 790 790 789 789 788 788 788 788 788 788 788 788 788 788 787 787 787 786 786 785 785 784 784 784 783 783 783 782 782 782 781 781 781 780 780 780 780 779 779 778 778 777
809 808 808 808 808 807 807 807 807 807 806 807 807 807 806 806 805 805 805 805 805 806 805 805 805 805 805 804 803 802 802 801 801 801 801 800 800 799 798 798 797 797 795 793 790 788 787 787 787 787 787 787 787 787 787 787 786 786 786 786 785 785 784 784 783 783 782 782 782 781 781 781 780 780 780 780 779 779 779 778 778 778 777 776 775 775
808 807 807 807 807 806 806 805 805 805 805 805 805 805 805 805 805 805 804 805 805 805 805 804 804 805 804 804 803 802 801 800 800 800 800 800 800 799 798 798 798 797 796 795 792 789 786 785 785 785 785 785 785 785 785 785 785 785 784 784 783 783 782 782 781 781 781 780 780 780 780 779 779 779 778 778 777 777 777 777 776 776 775 774 773 773
806 806 806 806 805 805 805 804 804 804 804 804 804 804 804 804 804 804 804 804 804 804 804 803 803 804 804 804 804 803 801 800 800 800 800 800 800 799 798 798 798 797 797 797 796 793 789 785 784 784 784 784 784 783 783 783 783 782 782 782 781 781 780 780 780 780 779 779 779 779 778 778 777 777 776 776 776 775 775 775 775 774 773 772 772 771
805 805 805 805 804 804 804 803 803 802 802 802 802 802 802 802 803 803 803 803 803 803 803 803 803 803 803 803 803 803 801 800 800 800 800 800 799 799 798 798 798 797 797 798 798 797 794 788 784 782 782 782 782 781 781 781 781 781 780 780 780 779 779 779 779 778 778 777 777 777 776 776 775 775 775 774 774 773 773 773 773 772 772 771 770 769
805 805 804 804 804 803 802 802 802 801 801 801 801 802 802 802 802 802 802 802 802 802 802 802 802 802 802 802 802 801 800 800 800 800 800 800 799 798 798 798 797 797 797 797 797 797 795 792 787 784 782 781 780 780 780 780 780 780 780 779 779 778 778 778 777 777 776 775 775 775 774 774 774 773 773 772 772 771 771 771 771 770 770 769 768 767
804 804 804 803 803 802 802 801 801 801 801 801 801 801 801 801 801 801 801 801 801 801 801 801 801 801 801 801 800 800 800 800 800 800 800 800 799 798 797 797 797 796 796 796 795 795 794 792 790 787 784 780 779 779 779 779 779 779 779 778 778 777 776 776 776 775 775 774 773 773 772 772 771 771 770 770 770 769 769 769 769 769 768 768 767 766
803 803 803 802 802 801 801 801 801 800 800 800 800 800 800 800 800 800 800 800 800 800 800 800 800 800 800 800 800 799 798 798 799 800 800 799 799 798 797 796 796 796 796 795 795 794 793 791 790 789 786 782 780 778 779 779 778 778 777 777 777 776 775 775 774 774 773 772 771 770 770 770 769 769 768 768 768 767 767 767 767 766 766 766 766 765
802 802 802 801 801 801 800 800 800 800 800 800 800 800 800 800 800 800 799 799 799 799 799 799 799 799 799 799 799 798 797 797 798 799 799 798 798 797 796 795 795 795 795 794 794 793 792 790 789 788 787 784 781 778 777 777 778 777 776 776 775 775 774 773 773 772 771 770 770 769 768 768 767 767 766 766 766 765 765 765 765 765 764 764 764 763
801 801 801 801 800 800 800 800 800 800 800 799 799 799 799 799 799 799 799 798 798 798 798 798 798 798 798 798 797 797 796 796 797 797 797 797 797 797 796 795 794 794 794 794 793 792 791 790 788 787 786 785 782 780 777 776 776 776 775 774 774 773 772 772 771 771 770 769 768 767 767 766 766 765 765 764 764 764 763 763 762 762 762 761 761 760
801 800 800 800 800 800 799 799 799 799 799 799 798 798 798 798 798 798 798 797 797 797 797 797 797 797 797 796 796 796 795 795 795 795 795 795 795 795 795 794 793 793 793 793 792 792 791 790 788 786 785 783 781 780 778 777 776 775 773 773 772 772 771 770 770 770 769 768 767 766 765 765 764 764 763 762 762 761 760 760 760 759 759 759 758 758
800 800 799 799 799 799 799 798 798 798 798 798 797 797 797 797 797 797 796 796 796 796 796 796 795 795 795 795 795 794 794 794 794 794 794 794 794 794 793 792 792 792 792 792 791 791 790 790 788 786 784 782 780 779 778 777 776 775 773 771 770 770 770 770 769 768 768 767 765 765 764 763 762 762 761 760 760 759 758 758 757 757 757 756 755 755
799 799 799 799 798 798 798 798 797 797 797 797 796 796 796 796 796 795 795 795 795 795 795 794 794 794 793 793 793 793 793 792 792 792 792 792 792 792 792 791 791 790 790 790 790 790 789 788 787 785 784 782 780 778 777 776 775 775 773 771 769 768 768 768 768 767 766 765 765 763 762 761 761 760 760 759 758 758 757 756 755 755 755 755 754 753
798 798 798 798 798 797 797 797 797 796 796 796 795 795 795 795 795 794 794 794 794 794 794 793 793 792 792 792 792 791 791 791 791 791 790 790 790 790 790 790 790 790 789 789 789 788 788 787 786 784 783 782 780 778 776 775 774 774 773 771 769 767 766 766 766 765 765 764 763 762 761 760 760 759 758 757 757 756 755 755 754 753 753 753 752 752
798 797 797 797 797 797 796 796 796 795 795 795 795 795 794 794 794 793 793 792 792 792 792 792 792 791 791 790 790 790 790 790 790 789 789 789 789 789 789 789 789 788 788 788 787 786 786 785 785 783 782 781 780 778 775 773 773 773 772 771 769 766 765 764 764 764 764 763 762 761 760 760 758 757 756 755 755 754 753 753 752 751 751 750 750 750
797 797 797 796 796 796 795 795 795 795 795 794 794 794 794 793 793 792 792 792 791 791 791 791 791 790 790 789 788 788 789 788 788 788 788 788 788 788 788 788 787 787 787 786 785 785 784 784 783 782 781 780 779 777 774 772 771 771 770 770 769 767 764 762 761 762 762 761 760 760 759 758 757 756 755 754 753 752 751 750 750 750 749 748 748 747
796 796 796 796 795 795 795 795 795 794 794 794 793 793 793 793 792 792 791 791 791 791 791 790 790 790 789 788 787 787 787 787 787 787 787 787 787 787 787 786 786 786 786 785 784 783 783 782 781 780 780 779 778 776 773 771 770 769 768 768 768 767 764 762 760 760 760 759 759 758 757 757 756 755 753 752 751 750 749 748 747 747 746 746 745 745
796 796 795 795 795 795 795 794 794 793 793 793 793 792 792 792 791 791 791 791 790 790 790 790 790 789 788 787 787 786 786 786 785 786 786 786 786 786 785 785 785 785 784 784 783 782 781 780 779 778 778 777 776 774 772 770 769 767 766 766 765 765 763 761 760 760 759 758 757 756 756 755 755 753 752 750 749 748 747 746 745 744 744 743 743 742
795 795 795 795 795 794 794 793 793 793 792 792 792 792 791 791 791 791 790 790 790 790 790 789 789 789 788 787 786 786 785 785 784 784 784 784 784 784 784 784 784 783 783 782 781 780 780 779 778 777 776 775 774 772 770 769 768 766 764 764 763 762 761 760 759 759 758 757 755 755 754 754 754 752 750 748 747 745 744 744 743 742 741 741 740 740
794 794 794 794 794 794 793 793 793 792 792 791 791 791 791 790 790 790 790 790 790 789 789 789 788 788 787 787 786 786 785 784 783 783 783 783 783 783 783 782 782 782 781 780 780 779 778 777 776 776 775 773 771 769 767 767 766 765 763 762 761 760 759 758 757 757 756 755 754 753 753 753 752 750 749 747 745 743 741 741 740 740 739 739 738 737
794 794 793 793 793 793 793 792 792 792 791 791 790 790 790 790 790 790 789 789 789 789 789 788 788 787 787 786 786 785 785 784 783 782 782 782 781 781 781 781 780 780 779 779 778 777 776 775 774 774 773 772 770 767 765 764 764 763 762 761 760 759 757 756 755 755 755 754 753 752 752 751 750 749 747 745 743 740 739 738 737 737 737 737 736 735
793 793 793 793 792 792 792 792 791 791 791 790 790 789 789 789 789 789 789 788 788 788 788 787 787 787 786 785 785 785 785 784 783 782 781 781 780 780 780 779 779 778 777 776 775 775 773 772 771 771 770 770 768 766 763 762 761 761 760 760 759 757 756 754 753 753 753 752 751 750 750 750 749 748 746 744 741 738 736 735 734 734 735 734 734 733
792 792 792 792 792 791 791 791 791 790 790 790 789 789 788 788 788 788 788 788 788 787 787 787 786 786 785 785 784 784 784 783 782 781 780 780 780 779 779 778 778 777 776 775 774 773 771 770 769 768 767 767 766 764 762 760 759 759 758 757 757 756 755 753 752 751 751 750 750 749 748 747 747 746 745 743 740 737 734 732 731 731 731 732 731 730
791 791 791 791 791 790 790 790 790 790 790 789 789 788 788 788 787 787 787 787 787 787 786 786 785 785 785 784 783 783 782 782 781 780 780 779 779 778 778 777 777 776 775 773 772 771 770 768 766 765 764 764 764 763 761 760 758 757 756 755 755 754 753 752 750 750 750 749 748 747 746 745 745 744 743 741 739 736 733 730 729 728 729 729 729 728